User: anonymous
Location: Irma
(52.9170°N, 111.2330°W)
Time: 20:22:25
(UTC-06:00)
Language:

deb Chang Zheng 4 - Orbit

View from above orbital plane
View from above orbital plane
View from above satellite
View from above satellite

Ground track
Ground track

The orbit data is extracted from the following two-line orbital elements,

1 20847U 90081K   14274.08838081  .00013632  00000-0  23951-2 0  1992
2 20847 098.5772 082.7600 0021963 327.7757 165.0837 14.67631341259724
Epoch (UTC): 01 October 2014 02:07:16
Eccentricity: 0.0021963
inclination: 98.5772°
perigee height: 653 km
apogee height: 684 km
right ascension of ascending node: 82.7600°
argument of perigee: 327.7757°
revolutions per day: 14.67631341
mean anomaly at epoch: 165.0837°
orbit number at epoch: 25972

The dashed part of the orbit path shows where the satellite is in the earth's shadow,  

DLR